| time (UTC) | temp F | wind direction | speed MPH | gust MPH | rain 1hr in | rain 24hr in | rain mn in | humidity % | barometer mb |
| 20260503211502 | 64 | 178 | 1.0 | 3.0 | 0.00 | 0.10 | 0.00 | 32 | 1015.9 |
| 20260503210503 | 65 | 133 | 3.0 | 8.0 | 0.00 | 0.10 | 0.00 | 30 | 1016.0 |
| 20260503210003 | 65 | 231 | 2.0 | 6.0 | 0.00 | 0.10 | 0.00 | 34 | 1016.0 |
| 20260503205503 | 65 | 162 | 2.0 | 6.0 | 0.00 | 0.10 | 0.00 | 31 | 1015.9 |
| 20260503204503 | 65 | 295 | 1.0 | 5.0 | 0.00 | 0.10 | 0.00 | 29 | 1015.8 |
| 20260503203503 | 65 | 182 | 2.0 | 6.0 | 0.00 | 0.10 | 0.00 | 31 | 1015.9 |
| 20260503202503 | 65 | 37 | 2.0 | 7.0 | 0.00 | 0.10 | 0.00 | 30 | 1015.9 |
| 20260503202003 | 66 | 185 | 1.0 | 7.0 | 0.00 | 0.10 | 0.00 | 32 | 1016.0 |
| 20260503201003 | 65 | 326 | 2.0 | 5.0 | 0.00 | 0.10 | 0.00 | 31 | 1016.1 |
| 20260503200503 | 65 | 52 | 2.0 | 7.0 | 0.00 | 0.10 | 0.00 | 30 | 1016.3 |
| 20260503200004 | 65 | 121 | 2.0 | 6.0 | 0.00 | 0.10 | 0.00 | 30 | 1016.2 |
| 20260503194503 | 65 | 79 | 2.0 | 7.0 | 0.00 | 0.10 | 0.00 | 32 | 1016.4 |
| 20260503194003 | 65 | 352 | 1.0 | 6.0 | 0.00 | 0.10 | 0.00 | 34 | 1016.5 |
| 20260503193503 | 65 | 262 | 1.0 | 6.0 | 0.00 | 0.10 | 0.00 | 31 | 1016.5 |
| 20260503193004 | 65 | 47 | 2.0 | 9.0 | 0.00 | 0.10 | 0.00 | 34 | 1016.6 |
| 20260503192504 | 65 | 151 | 2.0 | 5.0 | 0.00 | 0.10 | 0.00 | 34 | 1016.5 |
| 20260503191503 | 64 | 125 | 1.0 | 9.0 | 0.00 | 0.10 | 0.00 | 32 | 1016.7 |
| 20260503190004 | 64 | 121 | 2.0 | 6.0 | 0.00 | 0.10 | 0.00 | 36 | 1017.0 |
| 20260503185504 | 64 | 133 | 3.0 | 7.0 | 0.00 | 0.10 | 0.00 | 35 | 1016.9 |
| 20260503185003 | 64 | 177 | 2.0 | 6.0 | 0.00 | 0.10 | 0.00 | 34 | 1017.0 |
| 20260503184504 | 64 | 156 | 2.0 | 5.0 | 0.00 | 0.10 | 0.00 | 34 | 1017.0 |
| 20260503184003 | 64 | 291 | 2.0 | 6.0 | 0.00 | 0.10 | 0.00 | 32 | 1017.1 |
| 20260503183503 | 64 | 313 | 1.0 | 6.0 | 0.00 | 0.10 | 0.00 | 34 | 1017.1 |
| 20260503182504 | 63 | 240 | 1.0 | 3.0 | 0.00 | 0.10 | 0.00 | 39 | 1017.1 |
| 20260503182005 | 63 | 276 | 1.0 | 5.0 | 0.00 | 0.10 | 0.00 | 36 | 1017.2 |
| 20260503181504 | 63 | 278 | 1.0 | 5.0 | 0.00 | 0.10 | 0.00 | 37 | 1017.2 |
| 20260503181003 | 63 | 254 | 1.0 | 6.0 | 0.00 | 0.10 | 0.00 | 39 | 1017.3 |
| 20260503180503 | 63 | 52 | 1.0 | 3.0 | 0.00 | 0.10 | 0.00 | 37 | 1017.3 |
| 20260503180004 | 62 | 308 | 2.0 | 6.0 | 0.00 | 0.10 | 0.00 | 40 | 1017.4 |
| 20260503175503 | 62 | 171 | 1.0 | 6.0 | 0.00 | 0.10 | 0.00 | 38 | 1017.5 |
| 20260503175003 | 62 | 248 | 1.0 | 5.0 | 0.00 | 0.10 | 0.00 | 36 | 1017.5 |
| 20260503174003 | 61 | 297 | 2.0 | 6.0 | 0.00 | 0.10 | 0.00 | 40 | 1017.7 |
| 20260503173503 | 60 | 105 | 2.0 | 6.0 | 0.00 | 0.10 | 0.00 | 38 | 1017.7 |
| 20260503173003 | 61 | 105 | 2.0 | 6.0 | 0.00 | 0.10 | 0.00 | 35 | 1017.8 |
| 20260503172504 | 61 | 137 | 3.0 | 7.0 | 0.00 | 0.10 | 0.00 | 38 | 1017.7 |
| 20260503172004 | 61 | 0 | 2.0 | 5.0 | 0.00 | 0.10 | 0.00 | 38 | 1017.8 |
| 20260503171503 | 61 | 101 | 2.0 | 7.0 | 0.00 | 0.10 | 0.00 | 37 | 1017.9 |
| 20260503171004 | 61 | 129 | 2.0 | 8.0 | 0.00 | 0.10 | 0.00 | 35 | 1018.1 |
| 20260503170504 | 61 | 250 | 1.0 | 6.0 | 0.00 | 0.10 | 0.00 | 41 | 1018.0 |
| 20260503151003 | 56 | 235 | 2.0 | 6.0 | 0.00 | 0.14 | 0.00 | 46 | 1019.0 |
| 20260503150504 | 56 | 313 | 3.0 | 8.0 | 0.00 | 0.14 | 0.00 | 44 | 1018.9 |
| 20260503131003 | 51 | 37 | 1.0 | 5.0 | 0.00 | 0.20 | 0.00 | 58 | 1018.8 |
| 20260503130503 | 50 | 84 | 1.0 | 3.0 | 0.00 | 0.20 | 0.00 | 62 | 1018.7 |
| 20260503110505 | 37 | 283 | 0.0 | 1.0 | 0.00 | 0.23 | 0.00 | 94 | 1017.8 |
| 20260503081503 | 40 | 304 | 0.0 | 1.0 | 0.00 | 0.24 | 0.00 | 92 | 1015.9 |
| 20260503081004 | 40 | 70 | 0.0 | 1.0 | 0.00 | 0.24 | 0.00 | 92 | 1015.8 |
| 20260503080504 | 40 | 234 | 0.0 | 3.0 | 0.00 | 0.24 | 0.00 | 92 | 1015.7 |
| 20260503072503 | 40 | 331 | 0.0 | 1.0 | 0.00 | 0.24 | 0.00 | 95 | 1015.1 |
| 20260503072004 | 40 | 239 | 0.0 | 1.0 | 0.00 | 0.24 | 0.00 | 95 | 1015.1 |
| 20260503071504 | 40 | 13 | 0.0 | 1.0 | 0.00 | 0.24 | 0.00 | 95 | 1015.0 |
| 20260503071004 | 40 | 52 | 0.0 | 1.0 | 0.00 | 0.24 | 0.00 | 96 | 1014.9 |
| 20260503070503 | 40 | 272 | 0.0 | 0.0 | 0.00 | 0.24 | 0.00 | 96 | 1014.9 |
| 20260503054503 | 42 | 285 | 0.0 | 0.0 | 0.00 | 0.24 | 0.00 | 96 | 1014.6 |
| 20260503054003 | 42 | 285 | 0.0 | 0.0 | 0.00 | 0.24 | 0.00 | 96 | 1014.7 |
| 20260503053503 | 42 | 285 | 0.0 | 0.0 | 0.00 | 0.24 | 0.00 | 96 | 1014.7 |
| 20260503053005 | 42 | 285 | 0.0 | 0.0 | 0.00 | 0.24 | 0.00 | 96 | 1014.7 |
| 20260503052503 | 42 | 285 | 0.0 | 0.0 | 0.00 | 0.24 | 0.00 | 96 | 1014.6 |
| 20260503052003 | 42 | 285 | 0.0 | 1.0 | 0.00 | 0.24 | 0.00 | 96 | 1014.6 |
| 20260503051004 | 42 | 18 | 0.0 | 0.0 | 0.00 | 0.24 | 0.00 | 96 | 1014.6 |
| 20260503050004 | 43 | 166 | 0.0 | 1.0 | 0.00 | 0.24 | 0.00 | 96 | 1014.7 |
| 20260503045504 | 43 | 201 | 0.0 | 0.0 | 0.10 | 0.24 | 0.00 | 96 | 1014.7 |
| 20260503045004 | 44 | 201 | 0.0 | 0.0 | 0.10 | 0.24 | 0.00 | 96 | 1014.6 |
| 20260503043504 | 44 | 299 | 0.0 | 1.0 | 0.10 | 0.24 | 0.00 | 96 | 1014.7 |
| 20260503043004 | 44 | 275 | 0.0 | 1.0 | 0.10 | 0.24 | 0.00 | 96 | 1014.6 |
| 20260503042503 | 44 | 193 | 0.0 | 1.0 | 0.10 | 0.24 | 0.00 | 96 | 1014.6 |
| 20260503042004 | 44 | 214 | 0.0 | 0.0 | 0.10 | 0.24 | 0.00 | 96 | 1014.7 |
| 20260503041504 | 44 | 214 | 0.0 | 1.0 | 0.10 | 0.24 | 0.00 | 96 | 1014.6 |
| 20260503041004 | 44 | 309 | 0.0 | 1.0 | 0.10 | 0.24 | 0.00 | 96 | 1014.5 |
| 20260503040504 | 44 | 258 | 0.0 | 1.0 | 0.10 | 0.24 | 0.00 | 96 | 1014.4 |
| 20260503035503 | 45 | 316 | 0.0 | 0.0 | 0.00 | 0.14 | 0.10 | 95 | 1014.4 |
| 20260503035004 | 45 | 322 | 0.0 | 1.0 | 0.00 | 0.14 | 0.10 | 95 | 1014.3 |
| 20260503034504 | 45 | 201 | 0.0 | 1.0 | 0.00 | 0.14 | 0.10 | 95 | 1014.3 |
| 20260503034004 | 45 | 301 | 0.0 | 0.0 | 0.00 | 0.14 | 0.10 | 95 | 1014.3 |
| 20260503033503 | 45 | 60 | 0.0 | 1.0 | 0.00 | 0.14 | 0.10 | 95 | 1014.3 |
| 20260503033003 | 46 | 92 | 0.0 | 0.0 | 0.00 | 0.14 | 0.10 | 95 | 1014.3 |
| 20260503032503 | 46 | 247 | 1.0 | 1.0 | 0.00 | 0.14 | 0.10 | 95 | 1014.2 |
| 20260503031504 | 46 | 20 | 0.0 | 1.0 | 0.00 | 0.14 | 0.10 | 95 | 1014.1 |
| 20260503031004 | 46 | 319 | 0.0 | 1.0 | 0.00 | 0.14 | 0.10 | 95 | 1014.0 |
| 20260503030002 | 46 | 1 | 1.0 | 1.0 | 0.00 | 0.14 | 0.10 | 95 | 1013.9 |
| 20260503025502 | 46 | 275 | 0.0 | 1.0 | 0.00 | 0.14 | 0.10 | 95 | 1013.8 |
| 20260503025003 | 47 | 42 | 0.0 | 1.0 | 0.00 | 0.14 | 0.10 | 95 | 1013.9 |
| 20260503024503 | 47 | 227 | 0.0 | 0.0 | 0.00 | 0.14 | 0.10 | 95 | 1013.8 |
| 20260503024003 | 47 | 227 | 0.0 | 1.0 | 0.00 | 0.14 | 0.10 | 95 | 1013.8 |
| 20260503022504 | 48 | 192 | 0.0 | 0.0 | 0.00 | 0.14 | 0.10 | 95 | 1013.6 |
| 20260503022003 | 48 | 192 | 0.0 | 0.0 | 0.00 | 0.14 | 0.10 | 95 | 1013.7 |
| 20260503021503 | 48 | 192 | 0.0 | 0.0 | 0.00 | 0.14 | 0.10 | 95 | 1013.8 |
| 20260503021003 | 48 | 192 | 0.0 | 0.0 | 0.00 | 0.14 | 0.10 | 95 | 1013.8 |
| 20260503020502 | 49 | 191 | 0.0 | 1.0 | 0.00 | 0.14 | 0.10 | 95 | 1013.7 |
| 20260503015502 | 49 | 327 | 0.0 | 1.0 | 0.00 | 0.14 | 0.10 | 95 | 1013.6 |
| 20260503015003 | 49 | 135 | 0.0 | 0.0 | 0.00 | 0.14 | 0.10 | 94 | 1013.4 |
| 20260503014503 | 49 | 73 | 0.0 | 0.0 | 0.00 | 0.14 | 0.10 | 94 | 1013.6 |
| 20260503013502 | 49 | 317 | 0.0 | 0.0 | 0.00 | 0.14 | 0.10 | 94 | 1013.4 |
| 20260503013002 | 49 | 282 | 0.0 | 0.0 | 0.00 | 0.14 | 0.10 | 94 | 1013.4 |
| 20260503012503 | 49 | 347 | 0.0 | 0.0 | 0.00 | 0.14 | 0.10 | 94 | 1013.4 |
| 20260503012003 | 49 | 347 | 0.0 | 0.0 | 0.00 | 0.14 | 0.10 | 94 | 1013.3 |
| 20260503011502 | 50 | 347 | 0.0 | 0.0 | 0.00 | 0.14 | 0.10 | 94 | 1013.2 |
| 20260503011003 | 50 | 347 | 0.0 | 1.0 | 0.00 | 0.14 | 0.10 | 93 | 1013.1 |
| 20260503010502 | 50 | 252 | 0.0 | 0.0 | 0.00 | 0.14 | 0.10 | 93 | 1013.1 |
| 20260503010002 | 50 | 252 | 0.0 | 0.0 | 0.00 | 0.14 | 0.10 | 93 | 1013.0 |
| 20260503005502 | 51 | 305 | 0.0 | 1.0 | 0.00 | 0.14 | 0.10 | 93 | 1012.9 |
| 20260503005003 | 51 | 35 | 0.0 | 0.0 | 0.00 | 0.14 | 0.10 | 92 | 1012.9 |
| 20260503004502 | 51 | 35 | 1.0 | 1.0 | 0.00 | 0.14 | 0.10 | 92 | 1012.8 |
| 20260503004002 | 51 | 21 | 1.0 | 2.0 | 0.00 | 0.14 | 0.10 | 92 | 1012.7 |
| 20260503003502 | 51 | 318 | 0.0 | 1.0 | 0.00 | 0.14 | 0.10 | 91 | 1012.8 |
| 20260503002502 | 52 | 287 | 0.0 | 1.0 | 0.00 | 0.14 | 0.10 | 90 | 1012.6 |
| 20260503001003 | 53 | 277 | 0.0 | 1.0 | 0.00 | 0.14 | 0.10 | 87 | 1012.4 |
| 20260503000502 | 54 | 18 | 0.0 | 0.0 | 0.00 | 0.14 | 0.10 | 86 | 1012.3 |
| 20260503000002 | 54 | 90 | 0.0 | 0.0 | 0.00 | 0.14 | 0.10 | 85 | 1012.2 |
| 20260502235503 | 55 | 87 | 0.0 | 0.0 | 0.00 | 0.14 | 0.10 | 85 | 1012.1 |
| 20260502235002 | 55 | 24 | 0.0 | 1.0 | 0.00 | 0.14 | 0.10 | 84 | 1012.1 |
| 20260502234502 | 55 | 244 | 0.0 | 1.0 | 0.00 | 0.14 | 0.10 | 84 | 1012.0 |
| 20260502233502 | 55 | 139 | 0.0 | 1.0 | 0.00 | 0.14 | 0.10 | 84 | 1011.8 |
| 20260502232503 | 56 | 176 | 0.0 | 0.0 | 0.00 | 0.14 | 0.10 | 83 | 1011.7 |
| 20260502232003 | 56 | 176 | 0.0 | 1.0 | 0.00 | 0.14 | 0.10 | 83 | 1011.7 |
| 20260502231502 | 56 | 93 | 0.0 | 0.0 | 0.00 | 0.14 | 0.10 | 82 | 1011.7 |
| 20260502231002 | 56 | 108 | 0.0 | 1.0 | 0.00 | 0.14 | 0.10 | 82 | 1011.6 |
| 20260502230502 | 56 | 250 | 0.0 | 1.0 | 0.00 | 0.14 | 0.10 | 81 | 1011.6 |
| 20260502230002 | 56 | 324 | 1.0 | 1.0 | 0.00 | 0.14 | 0.10 | 81 | 1011.6 |
| 20260502225502 | 55 | 324 | 0.0 | 1.0 | 0.00 | 0.14 | 0.10 | 80 | 1011.6 |
| 20260502225002 | 56 | 345 | 0.0 | 1.0 | 0.00 | 0.14 | 0.10 | 81 | 1011.6 |
| 20260502224503 | 56 | 246 | 0.0 | 1.0 | 0.00 | 0.14 | 0.10 | 80 | 1011.6 |
| 20260502224002 | 56 | 338 | 0.0 | 1.0 | 0.00 | 0.14 | 0.10 | 81 | 1011.6 |
| 20260502223503 | 56 | 255 | 0.0 | 1.0 | 0.00 | 0.14 | 0.10 | 80 | 1011.6 |
| 20260502223002 | 56 | 204 | 0.0 | 0.0 | 0.00 | 0.14 | 0.10 | 80 | 1011.6 |
| 20260502222002 | 56 | 297 | 0.0 | 1.0 | 0.00 | 0.14 | 0.10 | 80 | 1011.5 |
| 20260502221502 | 56 | 282 | 1.0 | 2.0 | 0.00 | 0.14 | 0.10 | 80 | 1011.5 |
| 20260502220502 | 56 | 119 | 0.0 | 1.0 | 0.00 | 0.14 | 0.10 | 81 | 1011.4 |
| 20260502220002 | 56 | 169 | 0.0 | 2.0 | 0.00 | 0.14 | 0.10 | 81 | 1011.4 |
| 20260502215502 | 56 | 202 | 1.0 | 3.0 | 0.00 | 0.14 | 0.10 | 80 | 1011.3 |
| 20260502215003 | 56 | 307 | 1.0 | 1.0 | 0.00 | 0.14 | 0.10 | 81 | 1011.2 |
| 20260502214503 | 56 | 188 | 0.0 | 2.0 | 0.00 | 0.14 | 0.10 | 80 | 1011.2 |
| 20260502214003 | 56 | 210 | 0.0 | 2.0 | 0.00 | 0.14 | 0.10 | 79 | 1011.2 |
| 20260502213503 | 56 | 273 | 0.0 | 2.0 | 0.00 | 0.14 | 0.10 | 78 | 1011.1 |
| 20260502213002 | 57 | 191 | 0.0 | 1.0 | 0.00 | 0.14 | 0.10 | 78 | 1011.3 |
| 20260502212502 | 57 | 170 | 0.0 | 2.0 | 0.00 | 0.14 | 0.10 | 78 | 1011.3 |
| 20260502212002 | 57 | 4 | 0.0 | 1.0 | 0.00 | 0.14 | 0.10 | 79 | 1011.2 |